This is the latest recevied weather packets stored in our database for station/object K7SPS-10. If no packets are shown the sender has not sent any weather packets the latest 10 day(s).
| Time | Temp. | Humidity | Pressure | Rain* | Wind** | Luminosity | Snow |
|---|---|---|---|---|---|---|---|
| 1778258134 | 18.89° C | 43% | 1017.6 hPa | 0 mm | - | 583 W/m² | - |
| 1778257831 | 18.89° C | 45% | 1017.3 hPa | 0 mm | - | 526 W/m² | - |
| 1778257528 | 18.33° C | 45% | 1017.4 hPa | 0 mm | - | 503 W/m² | - |
| 1778257225 | 18.33° C | 48% | 1017.4 hPa | 0 mm | - | 533 W/m² | - |
| 1778256922 | 18.89° C | 46% | 1017.3 hPa | 0 mm | - | 528 W/m² | - |
| 1778256619 | 18.89° C | 45% | 1017.4 hPa | 0 mm | - | 495 W/m² | - |
| 1778256318 | 18.33° C | 47% | 1017.4 hPa | 0 mm | - | 471 W/m² | - |
| 1778256014 | 17.22° C | 51% | 1017.5 hPa | 0 mm | - | 470 W/m² | - |
| 1778255711 | 17.78° C | 51% | 1017.4 hPa | 0 mm | - | 279 W/m² | - |
| 1778255408 | 17.78° C | 52% | 1017.6 hPa | 0 mm | - | 309 W/m² | - |
| 1778255106 | 17.22° C | 50% | 1017.6 hPa | 0 mm | - | 445 W/m² | - |
| 1778254802 | 16.67° C | 52% | 1017.5 hPa | 0 mm | - | 422 W/m² | - |
| 1778254499 | 16.11° C | 57% | 1017.5 hPa | 0 mm | - | 385 W/m² | - |
| 1778254195 | 16.11° C | 58% | 1017.5 hPa | 0 mm | - | 379 W/m² | - |
| 1778253892 | 15.56° C | 59% | 1017.6 hPa | 0 mm | - | 368 W/m² | - |
| 1778253588 | 15° C | 60% | 1017.6 hPa | 0 mm | - | 182 W/m² | - |
| 1778253284 | 15° C | 62% | 1017.5 hPa | 0 mm | - | 167 W/m² | - |
| 1778252981 | 14.44° C | 60% | 1017.5 hPa | 0 mm | - | 216 W/m² | - |
| 1778252678 | 14.44° C | 61% | 1017.3 hPa | 0 mm | - | 180 W/m² | - |
| 1778252374 | 13.89° C | 64% | 1017.4 hPa | 0 mm | - | 130 W/m² | - |
| 1778252071 | 13.33° C | 67% | 1017.3 hPa | 0 mm | - | 87 W/m² | - |
| 1778251767 | 13.89° C | 64% | 1017.1 hPa | 0 mm | - | 90 W/m² | - |
| 1778251465 | 13.89° C | 63% | 1017 hPa | 0 mm | - | 121 W/m² | - |
| 1778251163 | 13.89° C | 62% | 1017.1 hPa | 0 mm | - | 145 W/m² | - |
| 1778250860 | 13.33° C | 60% | 1017 hPa | 0 mm | - | 171 W/m² | - |
* Rain latest hour (hover to see other rain measurements)
** Current wind speed in m/s (hover to see current wind gust speed)